Location: Liscomb Game Sanctuary
(45.1633°N, 62.5575°W)
Time: 06:49:59
(UTC-03:00)

Daily predictions for brighter satellites

Satellite Brightness Start Highest point End
(mag) Time Altitude Azimuth Time Altitude Azimuth Time Altitude Azimuth
Atlas Centaur 2 4.1 20:32:22 10° SSW 20:36:50 18° SSE 20:41:48 10° ESE
CENTAUR R/B 3.7 20:33:29 10° WSW 20:39:30 49° NW 20:46:23 10° NNE
Cosmos 2026 Rocket 4.1 20:38:28 10° N 20:44:41 63° E 20:50:45 10° SSE
ERS-1 Rocket 4.1 20:42:51 10° ESE 20:47:03 27° ENE 20:51:14 10° N
ERBS 3.9 20:45:31 10° WNW 20:48:38 32° SW 20:51:45 10° SSE
Cosmos 2263 Rocket 2.4 20:43:30 10° NNW 20:48:59 55° ENE 20:54:27 10° SE
Abrixas rocket 2.6 20:48:41 10° W 20:51:57 64° NNW 20:55:13 10° ENE
SeaSat 1 4.1 20:52:06 10° E 20:55:38 20° NE 20:59:10 10° N
Cosmos 2322 Rocket 2.2 20:53:42 10° SSW 20:59:15 68° ESE 21:04:52 10° NNE
SJ-11-01 4.4 20:55:44 10° SSE 21:00:19 59° ENE 21:04:56 10° N
Meteor 2-20 Rocket 4.5 20:55:30 10° N 21:01:39 88° E 21:07:48 10° S
Cosmos 1707 Rocket 4.5 20:58:07 10° SSW 21:02:27 53° WNW 21:06:48 10° N
Cosmos 1869 3.6 20:59:02 10° SSW 21:02:57 72° W 21:06:55 10° N
COSMOS 2428 4.4 21:01:38 11° ESE 21:03:41 13° E 21:06:19 10° ENE
Cosmos 1733 Rocket 3.1 21:01:12 10° N 21:05:40 69° E 21:10:05 10° SSE
Cosmos 397 4.5 21:02:38 10° NW 21:07:01 82° WSW 21:10:54 11° SSE
Cosmos 2360 Rocket 2.9 21:03:33 10° SSE 21:08:31 33° ESE 21:13:30 10° NE
Cosmos 1992 Rocket 4.0 21:03:54 10° S 21:09:02 60° ESE 21:14:13 10° NNE
Cosmos 1980 Rocket 3.7 21:04:04 10° SW 21:09:25 41° NW 21:14:49 10° NNE
Cosmos 1634 Rocket 4.3 21:03:08 10° SSW 21:09:26 76° W 21:15:48 10° N
CZ-4B DEB 2.5 21:06:31 10° SSE 21:09:33 79° ENE 21:12:36 10° N
Cosmos 1825 2.6 21:11:12 10° NNW 21:14:58 64° W 21:18:44 10° S
Cosmos 1862 Rocket 3.6 21:11:26 10° S 21:15:50 65° E 21:20:18 10° NNE
Cosmos 2322 4.3 21:15:58 10° S 21:21:06 35° ESE 21:26:14 10° NE
Cosmos 1655 Rocket 4.1 21:15:22 10° N 21:21:48 86° W 21:28:10 10° S
USA 186 3.7 21:19:31 10° SSW 21:21:56 26° W 21:24:30 10° NW
USA 267 3.8 21:16:05 10° NE 21:22:30 61° NNW 21:28:56 10° WSW
SAR-Lupe-4 4.3 21:19:29 10° S 21:22:59 53° W 21:26:32 10° NNW
BREEZE-M DEB (TANK) 3.6 21:20:13 10° W 21:23:30 82° N 21:33:11 10° E
ATLAS 5 CENTAUR R/B 2.4 21:19:00 10° NW 21:24:57 78° NE 21:30:01 17° SE
Helios 1A 3.8 21:21:09 10° S 21:25:17 53° W 21:29:28 10° NNW
GENESIS II 4.3 21:21:15 10° SW 21:25:18 89° NW 21:29:24 10° NE
SPOT 5 3.8 21:22:50 17° ESE 21:25:42 31° ENE 21:29:44 10° N
SL-16 R/B 2.4 21:22:46 10° SSW 21:28:26 75° WNW 21:34:08 10° NNE
Cosmos 2266 Rocket 4.2 21:27:02 10° N 21:33:11 54° ENE 21:37:59 17° SSE
Cosmos 1933 3.4 21:31:26 10° S 21:35:28 84° W 21:39:31 10° N
Cosmos 1703 Rocket 4.0 21:33:21 18° SSE 21:36:13 40° E 21:40:22 10° NNE
ARGOS 3.7 21:33:43 20° SE 21:36:59 41° ENE 21:42:00 10° N
Cosmos 1408 4.4 21:33:52 10° NNW 21:37:10 31° W 21:40:26 10° SSW
Cosmos 2333 Rocket 4.0 21:44:34 13° E 21:44:34 13° E 21:46:15 10° ENE
Cosmos 968 Rocket 3.4 21:39:09 10° NNW 21:44:22 82° ENE 21:47:50 22° SSE
Cosmos 2278 Rocket 3.9 21:42:43 10° N 21:46:48 20° NE 21:49:58 13° E
Cosmos 1867 3.6 21:42:14 10° NW 21:47:44 88° SW 21:51:02 25° SSE
Cosmos 2279 Rocket 4.4 21:42:09 10° SSW 21:48:20 65° W 21:54:33 10° N
YAOGAN 11 4.2 21:46:09 26° SE 21:48:26 58° ENE 21:52:42 10° N
Cosmos 2221 Rocket 3.9 21:49:31 28° SE 21:51:23 44° E 21:55:36 10° NNE
Cosmos 1844 Rocket 3.3 21:46:09 10° NNW 21:51:25 41° NE 21:54:10 25° ESE
H-2A R/B 2.8 21:50:22 24° ESE 21:52:22 33° ENE 21:56:46 10° N
Milstar 3 4.4 21:49:02 10° SW 21:53:27 16° SSW 21:55:56 14° S
Envisat 4.3 21:52:56 10° SSW 21:57:36 37° W 22:02:19 10° NNW
USA 234 3.6 21:53:53 21° SSE 21:58:18 57° SW 22:04:44 10° WNW
SL-08 RB Rocket 4.1 21:57:25 31° ESE 21:59:09 47° ENE 22:03:32 10° N
CZ-4C R/B 3.8 21:55:23 10° NNW 22:01:35 35° NE 22:06:44 17° E
Cosmos 1782 3.6 22:06:27 33° E 22:06:27 33° E 22:10:01 10° NNE
Meteor 1-26 Rocket 4.3 22:00:59 10° S 22:06:40 87° W 22:12:32 10° N
MetOp-A 4.1 22:05:10 24° SSE 22:08:28 84° WSW 22:13:52 10° NNW
YAOGAN 6 4.0 22:10:20 17° SSW 22:12:38 34° W 22:15:58 10° NNW
Cosmos 2219 Rocket 3.1 22:13:09 28° E 22:13:09 28° E 22:17:45 10° NE
Lacrosse 4 Rocket 4.2 22:14:12 10° W 22:16:01 12° WSW 22:17:49 10° SW
Terra 2.7 22:18:40 30° E 22:19:34 33° ENE 22:23:49 10° N
H-2A R/B 2.8 22:20:23 34° E 22:20:53 35° ENE 22:24:51 10° N
Meteor 2-10 Rocket 4.4 22:17:31 10° SSW 22:23:13 56° WNW 22:28:55 10° N
Atlas Centaur 2 3.8 22:19:14 10° SW 22:25:12 27° S 22:25:41 26° S
ERS-1 Rocket 4.0 22:22:05 17° SSW 22:25:38 41° W 22:30:23 10° NNW
MOS 1-B Rocket 3.9 22:25:44 32° S 22:28:40 83° WSW 22:34:18 10° NNW
Abrixas rocket 3.0 22:25:50 10° WNW 22:29:01 46° N 22:29:23 43° NNE
Cosmos 2263 Rocket 4.0 22:28:12 10° NW 22:32:30 23° WSW 22:36:40 10° SSW
SeaSat 1 2.4 22:31:07 44° SSE 22:32:39 77° WSW 22:37:37 10° NNW
Meteor 1-10 Rocket 4.3 22:35:37 41° SSE 22:37:40 67° E 22:43:30 10° NNE
Cosmos 2237 4.2 22:32:16 10° SSW 22:38:00 84° WNW 22:43:46 10° NNE
Cosmos 1782 Rocket 4.4 22:34:46 10° NNW 22:38:58 46° W 22:40:33 32° SW
S3M 4.3 22:38:03 40° ESE 22:39:06 43° E 22:44:56 10° NNE
SPOT 1/Viking Rocket 3.6 22:38:08 43° S 22:39:52 80° WSW 22:45:08 10° NNW
Meteor 1-11 Rocket 4.0 22:34:32 10° N 22:39:53 47° ENE 22:40:51 42° ESE
USA 245 4.5 22:37:27 30° S 22:40:09 60° WSW 22:45:02 10° NNW
NOSS 3-1 (C) 3.5 22:41:12 46° SE 22:41:36 47° ESE 22:47:42 10° NE
Cosmos 1300 Rocket 4.5 22:39:42 10° N 22:43:24 35° ENE 22:43:24 35° ENE
USA 229 DEB 3.8 22:39:30 10° SW 22:46:21 79° NW 22:53:22 10° NE
USA 229 3.8 22:39:36 10° SW 22:46:27 79° NW 22:53:27 10° NE
Cosmos 1898 Rocket 4.4 22:42:18 10° N 22:47:00 34° ENE 22:47:46 32° ENE
COSMOS 2428 2.6 22:43:30 24° SSW 22:47:04 89° ESE 22:52:49 10° NNE
Okean 2 Rocket 3.7 22:43:39 10° NNW 22:48:04 53° W 22:49:13 41° SW
Cosmos 2360 Rocket 3.4 22:47:02 10° SW 22:52:22 42° WNW 22:57:45 10° NNE
Iridium 4 Rocket 3.8 22:52:40 10° N 22:55:51 38° NE 22:55:51 38° NE
Cosmos 1633 3.2 22:53:04 10° N 22:55:57 52° N 22:55:57 52° N
NOSS 3-1 (A) 3.8 22:57:51 42° E 22:57:51 42° E 23:03:12 10° NE
Okean 1-7 4.2 22:56:12 25° SW 22:58:12 40° WNW 23:02:23 10° N
Cosmos 1844 3.6 22:54:39 10° NNW 23:00:22 80° WSW 23:01:23 60° S
Cosmos 1980 4.2 23:02:07 41° E 23:02:07 41° E 23:06:39 10° NE
SPOT 5 4.2 23:02:04 26° SW 23:03:42 32° W 23:07:54 10° NNW
Cosmos 1536 4.0 23:02:02 10° N 23:04:54 35° NE 23:04:54 35° NE
Meteor 2-11 Rocket 4.5 23:05:29 54° ESE 23:06:04 56° E 23:12:01 10° NNE
SL-16 R/B 4.1 23:09:01 16° ENE 23:09:01 16° ENE 23:10:49 10° NE
ATLAS 5 CENTAUR R/B 4.1 23:04:38 10° WNW 23:09:15 23° WSW 23:11:35 19° SW
ASTEX 1 3.3 23:09:44 77° SSW 23:10:05 85° W 23:15:07 10° N
Cosmos 1606 3.5 23:10:35 49° NW 23:10:35 49° NW 23:13:55 10° N
Cosmos 1745 Rocket 4.0 23:04:16 10° N 23:10:37 75° E 23:11:49 59° SE
Cosmos 1417 Rocket 4.5 23:08:50 47° SSW 23:10:50 85° W 23:17:14 10° N
deb Chang Zheng 4 3.8 23:10:04 10° NNE 23:13:56 68° NNE 23:13:56 68° NNE
Cosmos 2084 4.2 23:17:13 10° NW 23:19:57 45° NW 23:19:57 45° NW
Cosmos 2151 Rocket 4.3 23:17:41 10° NNW 23:21:57 47° W 23:21:57 47° W
Cosmos 2333 Rocket 2.1 23:26:29 75° SSW 23:27:00 87° ESE 23:32:49 10° NNE
CARTOSAT-1 4.2 23:29:11 50° WNW 23:29:11 50° WNW 23:32:59 10° NNW
Cosmos 2237 Rocket 2.2 23:29:24 65° E 23:29:24 65° E 23:34:37 10° NNE
ATLAS 3B R/B 4.1 23:22:59 10° NNW 23:28:59 30° NNE 23:32:45 18° E
Cosmos 2278 Rocket 2.0 23:25:55 10° NNW 23:31:37 82° WSW 23:31:49 80° SSW
CRYOSAT 2 4.5 23:31:52 71° WNW 23:31:52 71° WNW 23:36:36 10° N
H-2A R/B 3.2 23:31:00 30° WSW 23:31:47 32° W 23:36:12 10° NNW
Geosat 4.0 23:29:54 10° NNE 23:34:56 75° WNW 23:35:12 73° W
Cosmos 1844 Rocket 3.7 23:30:16 10° NW 23:35:11 32° WSW 23:35:50 32° WSW
CZ-4B R/B 3.5 23:35:31 10° NNE 23:39:38 67° N 23:39:38 67° N
Cosmos 2298 Rocket 4.0 23:35:21 10° NNW 23:40:26 76° NNE 23:40:26 76° NNE
CZ-2C R/B 4.3 23:37:07 10° NE 23:40:07 22° ENE 23:40:07 22° ENE
Okean 1 Rocket 3.7 23:38:20 10° NNW 23:41:52 54° NNW 23:41:52 54° NNW
Cosmos 1674 Rocket 4.5 23:48:15 44° NW 23:48:15 44° NW 23:51:48 10° N
NOSS 0 Rocket 3.9 23:46:43 64° SW 23:47:42 79° WNW 23:53:53 10° NNE
Meteor 1-5 Rocket 4.1 23:43:55 10° NNW 23:49:34 85° W 23:49:34 85° W
CZ-4C R/B 2.8 23:43:41 10° NW 23:50:47 75° SW 23:51:55 64° S
ATLAS CENTAUR R/B 4.2 23:59:18 10° NE 23:59:18 10° NE 23:59:21 10° NE
